COSMOS 1285 DEB, 25840

Orbit data source: Space-Track

COSMOS 1285 DEB, 25840 is space debris in HEO originally from a launch on Tue, 04 Aug 1981 UTC launched from the Plesetsk Missile And Space Complex (PKMTR). Debris objects in space refer to the collection of defunct objects orbiting the Earth. Examples of debris include non-operational satellites, rocket bodies, and fragments generated from explosions, collisions, or faulty payload assembly.

Loading next visibility...
Identifier
25840, 1981-071J
Orbit
HEO
Country
Flag of CISCIS
Related business
Manufacturer
Unknown
Mission
Spacecraft
Bus & Motor
Unknown
Mass
Unknown
Launch date (UTC)
1981-08-04 (45 years ago)
Launch vehicle
Unknown
Launch site
Plesetsk Missile And Space Complex (PKMTR)
Object type
Payload
Rocket body
Debris
Shape & HBR
Unknown shape, 1.1 m
Radar Cross Section
Medium (>0.1 m² and <1 m²)

Expand to show TLE details & history
Last TLE update: 1 year ago

TLE from 1 year ago
0 COSMOS 1285 DEB
1 25840U 81071J   25227.14199434  .00000284  00000-0  00000+0 0  9992
2 25840  69.0875 104.2055 5948401 351.7832 214.4942  1.98031257203011
Epoch: 2025-08-15T03:24Z
TLE epoch observation values (Epoch: 2025-08-15T03:24:28.310Z)
Latitude
-2.74631°
Longitude
-89.65469°
Altitude
35,200.605 km
Speed
2.072 km/s
True Right ascension
19h 01m 02s
True Declination
-2° 44' 37"
Sunlit
Object was in daylight at epoch
Visualization orbit readout
Latitude
Unknown
Longitude
Unknown
Altitude
Unknown
Speed
Unknown
Apparent Right ascension
Unknown
Apparent Declination
Unknown
Sunlit
N/A
Visualization observer readout
Local Sidereal Time
00:43:42
Azimuth
Unknown
Elevation
Unknown
Doppler factor
Unknown
Orbital elements
Apogee altitude
36,340.19 km
Perigee altitude
4,474.207 km
Semi-major axis
26,785.336 km
Eccentricity
0.59484
Inclination
69.0875°
RAAN
104.2055°
Arg. of periapsis
351.7832°
True anomaly
191.10003°
Mean anomaly
214.4942°
Eccentric anomaly
201.82403°
Mean motion
0.49511 °/min
Orbital period
727.12 mins
BSTAR
0
Loading maneuver chart data...
Computing Atmospheric mass density...
Loading historical data...
Loading historical data...
Loading historical data...
Loading historical data...
Loading historical data...
Loading historical data...
Loading historical data...

Documentation

Showing up to 5 results
|